Location: Orange
(44.1392°N, 4.8079°E)
Time: 20:00:44
(UTC+00:00)

Daily predictions for brighter satellites

Satellite Brightness Start Highest point End
(mag) Time Altitude Azimuth Time Altitude Azimuth Time Altitude Azimuth
BREEZE-M DEB (TANK) 3.8 18:39:45 10° WNW 18:42:18 51° NNE 18:47:35 10° E
Cosmos 1703 3.8 18:40:56 10° N 18:44:36 39° ENE 18:48:15 10° SSE
Okean-O 3.0 18:40:55 10° S 18:45:19 69° WSW 18:49:46 10° NNW
Cosmos 1346 Rocket 2.8 18:42:35 10° N 18:46:29 64° ENE 18:50:22 10° SSE
CZ-4B R/B 4.0 18:45:32 10° N 18:48:31 28° WNW 18:51:29 10° SW
Cosmos 2278 3.8 18:45:42 10° NNW 18:51:28 90° WSW 18:57:09 10° SSE
Cosmos 1602 Rocket 4.4 18:48:53 10° N 18:52:45 31° ENE 18:56:38 10° SE
USA 186 2.4 18:49:43 10° SE 18:52:48 38° ENE 18:55:54 10° N
Cosmos 2233 Rocket 4.1 18:46:40 10° S 18:52:55 85° E 18:59:16 10° N
SJ-6B 3.6 18:49:42 10° SE 18:52:58 30° ENE 18:56:16 10° N
USA 276 2.1 18:51:54 10° WNW 18:55:04 83° SSW 18:58:13 10° ESE
YAOGAN 1 3.8 18:51:13 10° S 18:55:22 46° W 18:59:33 10° NNW
Lacrosse 4 Rocket 1.7 18:54:56 10° NNW 18:59:15 56° ENE 19:03:26 10° SE
ERS-2 2.0 18:56:24 10° NNE 19:00:04 82° ESE 19:03:42 10° SSW
BREEZE-M DEB (TANK) 4.3 18:57:22 10° S 19:01:14 15° SSE 19:03:21 11° ESE
SL-8 R/B 3.7 18:58:09 10° WSW 19:02:59 89° NNW 19:07:51 10° ENE
Meteor 1-21 Rocket 4.3 18:57:30 10° NNW 19:03:09 85° W 19:08:41 10° S
Okean 1-7 Rocket 3.8 18:59:34 10° N 19:04:08 81° W 19:08:41 10° S
Cosmos 1315 Rocket 2.8 19:01:41 10° S 19:05:45 80° E 19:09:48 10° NNE
BREEZE-M DEB (TANK) 3.0 19:05:22 10° SSW 19:08:19 49° SE 19:16:27 10° ENE
Cosmos 292 Rocket 3.9 19:04:00 10° NNW 19:08:50 60° ENE 19:13:37 10° SSE
Cosmos 1544 Rocket 3.7 19:08:15 10° SSW 19:12:39 78° W 19:17:04 10° N
USA 238 DEB 4.2 19:06:28 10° NNW 19:13:29 51° NE 19:19:55 14° ESE
USA 238 4.3 19:06:34 10° NNW 19:13:35 51° NE 19:20:00 14° ESE
Cosmos 1626 Rocket 3.5 19:11:15 10° N 19:15:39 77° E 19:20:01 10° SSE
DMSP B5D2-2 4.1 19:11:52 10° NNE 19:17:07 90° W 19:22:22 10° SSW
Cosmos 1300 3.2 19:15:53 10° SSE 19:19:23 37° E 19:22:56 10° NNE
Cosmos 1048 Rocket 4.0 19:14:15 10° S 19:19:25 66° ESE 19:24:42 10° NNE
Cosmos 2360 Rocket 3.4 19:15:46 10° N 19:20:31 26° NE 19:24:02 15° E
NOSS 3-2 (A) 4.2 19:13:47 10° NW 19:21:17 68° NE 19:28:45 14° SE
USA 32 4.0 19:17:41 10° S 19:22:51 70° E 19:28:04 10° N
Cosmos 468 4.5 19:18:12 10° S 19:23:29 71° ESE 19:28:49 10° NNE
Resurs 01 Rocket 2.8 19:21:05 16° ESE 19:23:32 25° ENE 19:27:12 10° N
SL-16 R/B 2.4 19:20:51 10° NNW 19:26:28 58° ENE 19:30:59 16° SE
Cosmos 2034 Rocket 4.3 19:23:16 10° SSE 19:29:00 42° E 19:34:49 10° NNE
CZ-4C R/B 2.5 19:25:21 10° S 19:29:37 34° ESE 19:34:36 10° NE
OBJECT-B 0.7 19:29:36 11° SSE 19:32:39 88° ENE 19:35:54 10° NNW
Cosmos 1452 Rocket 3.7 19:28:07 10° NNW 19:33:25 74° WSW 19:38:40 10° SSE
Cosmos 1184 Rocket 2.9 19:33:30 10° N 19:36:38 48° ENE 19:37:56 28° SE
USA 215 3.3 19:32:57 17° ESE 19:38:07 81° NE 19:44:41 10° NW
Cosmos 1980 Rocket 3.8 19:33:05 10° NW 19:38:08 34° WSW 19:43:08 10° SSW
Cosmos 1464 Rocket 4.0 19:35:50 10° S 19:42:10 77° E 19:48:28 10° N
Cosmos 2219 Rocket 4.0 19:38:31 10° N 19:42:16 18° NE 19:44:53 13° ENE
ATLAS 3B R/B 4.4 19:38:38 10° NNW 19:43:51 22° NNE 19:49:09 10° ENE
CZ-2C R/B 4.5 19:39:43 10° N 19:44:18 33° WNW 19:48:52 10° SW
Meteor 1-11 4.3 19:39:57 10° N 19:45:48 89° W 19:51:34 10° S
CENTAUR R/B 3.3 19:38:23 10° NW 19:46:29 69° NE 19:52:44 22° SE
IRS-1A Rocket 4.2 19:44:07 10° SSE 19:49:36 88° WSW 19:55:14 10° NNW
Nadezhda 4 Rocket 4.0 19:45:39 10° N 19:51:57 65° E 19:56:44 18° SSE
Resurs 1-3 3.5 19:51:12 19° SSE 19:54:17 85° ENE 19:58:41 10° NNW
Cosmos 2344 4.3 19:49:04 10° SSE 19:55:05 26° ESE 20:01:01 10° ENE
Cosmos 1455 4.1 20:00:06 16° NE 20:00:06 16° NE 20:01:23 10° NE
Cosmos 1953 Rocket 4.0 19:54:49 10° N 19:59:01 42° ENE 20:00:00 36° ESE
MOS 1 4.4 19:54:09 11° S 19:59:40 76° WSW 20:05:19 10° NNW
Cosmos 2333 Rocket 3.5 19:54:54 10° N 19:59:41 26° NE 20:01:44 21° E
In-Cosmos 22 Rocket 4.4 19:54:07 10° N 19:59:50 56° ENE 20:02:48 28° SE
Cosmos 2058 4.4 20:05:06 10° NNE 20:08:06 23° ENE 20:08:06 23° ENE
Ariane Rocket 3.5 20:05:35 13° S 20:10:03 59° WSW 20:15:04 10° NNW
Cosmos 2026 Rocket 4.4 20:04:31 10° N 20:10:15 42° ENE 20:12:05 34° ESE
Cosmos 1302 Rocket 4.2 20:05:39 10° NNW 20:10:52 54° ENE 20:12:32 38° ESE
ATLAS 5 CENTAUR R/B 1.5 20:07:33 10° SW 20:11:28 73° NW 20:15:54 10° NE
SL-27 R/B 2.3 20:10:19 35° SSW 20:11:41 82° ESE 20:15:13 10° NNE
IGS 5A 3.5 20:10:55 48° SE 20:11:48 62° ENE 20:15:55 10° N
Cosmos 1634 Rocket 4.4 20:09:58 31° SE 20:12:13 43° E 20:18:04 10° NNE
Cosmos 2228 3.0 20:09:14 13° S 20:13:10 83° W 20:17:33 10° N
Atlas Centaur 2 3.9 20:06:47 10° WSW 20:13:54 30° S 20:16:22 26° SSE
CZ-2C R/B 3.8 20:09:49 10° NNE 20:14:12 50° E 20:14:41 47° ESE
Lacrosse 5 rocket 1.2 20:13:40 10° SW 20:17:41 84° SE 20:20:53 17° NE
Cosmos 2322 Rocket 2.3 20:12:30 10° NNW 20:18:13 74° WSW 20:21:07 30° S
ARIANE 5 R/B 3.4 20:19:51 34° ENE 20:19:54 34° ENE 20:23:55 10° N
NOSS 3-4 (A) 3.3 20:14:28 10° SSW 20:20:05 57° ESE 20:26:06 10° NE
NOSS 3-4 (C) 3.3 20:14:32 10° SSW 20:20:11 57° ESE 20:26:12 10° NE
Cosmos 1825 Rocket 3.7 20:17:10 10° NNW 20:21:31 72° W 20:23:15 35° S
Cosmos 1441 Rocket 4.5 20:20:03 10° NNW 20:23:43 39° W 20:25:51 21° SSW
NOSS 3-2 (C) 4.1 20:18:28 10° NW 20:26:07 86° SW 20:30:27 33° SSE
Cosmos 1892 2.5 20:23:48 10° N 20:27:29 81° NE 20:27:29 81° NE
CARTOSAT-1 4.5 20:29:05 33° ENE 20:29:05 33° ENE 20:32:35 10° N
ATLAS 2AS CENTAUR R/B 3.1 20:26:17 10° S 20:33:52 52° ESE 20:41:23 10° NE
Cosmos 1408 3.1 20:33:10 10° N 20:35:57 51° N 20:35:57 51° N
Lacrosse 4 Rocket 4.0 20:34:54 10° WNW 20:37:26 15° WSW 20:39:55 10° SW
COSMOS 2428 3.5 20:33:28 10° N 20:38:42 35° NE 20:39:28 33° ENE
Terra 3.2 20:40:21 25° NE 20:40:21 25° NE 20:43:44 10° N
Cosmos 1992 Rocket 4.5 20:38:17 10° N 20:43:17 43° ENE 20:43:22 43° ENE
SL-8 R/B 4.4 20:41:08 10° W 20:45:51 51° N 20:47:20 37° NE
SPOT 1/Viking Rocket 3.4 20:47:22 65° SSE 20:48:11 88° ENE 20:53:27 10° NNW
Cosmos 1833 4.1 20:43:43 10° SSW 20:49:20 85° WNW 20:55:02 10° NNE
SPOT 3 Rocket 4.3 20:49:58 32° SSW 20:52:00 49° W 20:57:04 10° NNW
Cosmos 2333 4.1 20:47:10 10° NNW 20:52:58 71° ENE 20:53:36 65° ESE
BREEZE-M DEB (TANK) 4.4 20:56:25 10° W 20:57:07 16° WSW 20:57:07 16° WSW
Resurs 01 Rocket 3.0 20:58:39 28° SW 20:59:52 33° W 21:03:56 10° NNW
USA 245 3.9 21:00:20 72° WSW 21:00:31 73° WSW 21:04:53 10° NNW
Cosmos 1092 Rocket 4.3 20:55:27 10° NNW 21:01:40 63° W 21:04:00 38° SSW
Cosmos 1825 3.5 20:59:07 10° N 21:01:31 38° NNW 21:01:31 38° NNW
Cosmos 2360 Rocket 2.6 20:59:19 10° NNW 21:04:51 54° WSW 21:05:50 48° SW
SL-16 R/B 4.2 21:05:52 10° NW 21:10:05 22° W 21:12:53 15° SW
Exosat Rocket 3.8 21:06:34 10° NNW 21:13:46 78° ENE 21:14:03 76° E
ERS-1 Rocket 3.1 21:16:15 67° N 21:16:15 67° N 21:20:39 10° NNW
Cosmos 2058 Rocket 4.1 21:17:40 41° W 21:17:47 41° WNW 21:21:56 10° N
CZ-4C R/B 3.3 21:13:12 10° WSW 21:17:56 40° NW 21:23:37 10° NNE
Spot 2 Rocket 3.8 21:20:45 60° W 21:20:45 60° W 21:25:45 10° NNW
Meteor 2-1 Rocket 4.3 21:20:17 69° SW 21:20:51 76° W 21:26:44 10° N
USA 215 4.3 21:20:17 29° SSW 21:21:32 31° SW 21:27:12 10° WNW
Cosmos 2219 Rocket 2.2 21:21:19 10° NNW 21:26:36 77° NNW 21:26:36 77° NNW
SPOT 5 3.7 21:30:18 43° NNW 21:30:18 43° NNW 21:33:24 10° NNW
Cosmos 1455 4.5 21:34:56 23° NW 21:34:56 23° NW 21:37:10 10° NNW
ATLAS 3B R/B 2.8 21:28:55 10° NNW 21:35:54 65° NE 21:36:24 63° ENE
CENTAUR R/B 4.2 21:29:37 10° NW 21:37:00 35° WSW 21:39:56 29° SSW
Cosmos 2237 Rocket 3.2 21:36:13 10° NNW 21:40:36 37° NE 21:40:36 37° NE
Cosmos 2279 Rocket 4.2 21:42:32 61° WSW 21:43:02 63° W 21:49:12 10° N
Cosmos 2333 Rocket 2.7 21:38:41 10° NNW 21:43:45 55° W 21:43:45 55° W
Meteor 2-3 Rocket 4.4 21:46:20 10° N 21:50:46 51° NNE 21:50:46 51° NNE
Cosmos 2227 Rocket 4.5 22:00:49 14° NE 22:00:49 14° NE 22:01:36 10° NE
Lacrosse 5 rocket 3.7 21:53:54 10° WNW 21:56:46 23° NW 21:56:46 23° NW
Cosmos 1655 Rocket 4.1 21:51:52 10° N 21:57:32 70° NW 21:57:32 70° NW
Cosmos 2297 Rocket 4.2 22:09:15 19° NE 22:09:15 19° NE 22:10:53 10° NE
Cosmos 2344 3.8 22:01:17 10° SW 22:08:41 63° NW 22:16:35 10° NE
Cosmos 2266 Rocket 4.3 22:04:08 10° N 22:09:40 65° NW 22:09:40 65° NW
SeaSat 1 3.9 22:08:21 10° NNE 22:11:11 33° N 22:11:11 33° N
Terra 3.7 22:19:14 27° NW 22:19:14 27° NW 22:21:47 10° NNW
Cosmos 909 Rocket 4.4 22:18:55 59° NNW 22:18:55 59° NNW 22:24:40 10° NNE
COSMOS 2428 4.0 22:17:42 10° NW 22:21:30 33° WNW 22:21:30 33° WNW
ATLAS 2AS CENTAUR R/B 3.8 22:17:28 10° WSW 22:25:03 47° NW 22:32:28 10° NNE
SL-16 R/B 3.7 22:24:17 10° N 22:28:02 30° NNE 22:28:02 30° NNE
USA 281 3.9 23:12:45 48° NNE 23:12:45 48° NNE 23:17:56 10° NNW
Cosmos 2237 Rocket 4.3 23:20:28 10° NW 23:22:26 20° NW 23:22:26 20° NW
ATLAS 3B R/B 4.3 23:20:13 10° NW 23:23:39 24° WNW 23:23:39 24° WNW
Cosmos 2227 Rocket 3.8 23:42:35 31° NNW 23:42:35 31° NNW 23:45:55 10° NNE
Cosmos 2297 Rocket 4.0 23:51:01 27° NNW 23:51:01 27° NNW 23:54:38 10° N
Cosmos 2263 Rocket 4.1 23:56:34 22° NE 23:56:34 22° NE 23:58:38 10° NE
